[[{"header":{"parameterUnit":"m.s-1","parameterCategory":1,"la1":30.2991,"la2":30.254,"lo1":-89.0895,"lo2":-89.0444,"dy":0.0017,"dx":0.0017,"nx":28,"ny":28,"refTime":"2024-06-26T09:00:00:Z","depth":0,"parameterNumber":2,"parameterNumberName":"U-component_of_WINDS"},"data":[0,0,0,0,0,0,0,0,0,0,0,0,0,0,0,0,0,0,0,0,0,0,0,0,0,0,0,0,0,0,0,0,0,0,0,0,0,0,0,0,0,0,0,0,0,0,0,0,0,0,0,0,0,0,0,0,0,0,6.2858,6.286,0,6.302,6.3022,6.3023,6.2915,6.291,6.2905,6.29,6.307,6.3079,6.3088,0,0,0,0,0,0,0,0,0,0,0,0,0,6.2457,6.2465,6.2858,6.286,6.2862,6.3019,6.3022,6.3024,6.2916,6.291,6.2904,6.2898,6.3067,6.3077,6.3088,0,0,0,0,0,0,0,0,0,0,0,0,0,6.2626,6.2467,6.2858,6.2827,6.2826,6.3019,6.3022,6.3025,6.2917,6.291,6.2902,6.2895,6.3063,6.3076,6.309,6.3323,0,0,6.3132,6.3138,0,0,0,0,0,0,0,0,6.2617,6.2641,6.2829,6.2829,6.2828,6.2939,6.2942,6.3125,6.2919,6.2883,6.29,6.2892,6.3033,6.3048,6.3095,6.3331,6.3339,6.3133,6.3141,6.3147,6.3151,0,0,0,0,0,0,0,6.2605,6.2633,6.2922,6.2832,6.2832,6.2805,6.2821,6.2976,6.2998,6.2885,6.2878,6.2898,6.3031,6.3082,6.3098,6.3341,6.3133,6.3145,6.3153,6.3159,6.3773,6.3781,0,0,0,0,0,0,6.2596,6.2624,6.2917,6.2927,6.2702,6.2819,6.2836,6.2911,6.2995,6.3001,6.2904,6.2893,6.3063,6.3083,6.3104,6.338,6.3147,6.316,6.3168,6.3765,6.3775,6.3783,0,0,0,0,0,0,6.2587,6.2623,6.291,6.2774,6.2808,6.2834,6.2919,6.2919,6.297,6.301,6.3013,6.2953,6.3057,6.3085,6.3268,6.3384,6.3166,6.3179,6.3755,6.3768,6.3779,6.3935,0,0,0,0,0,0,6.2576,6.262,6.2709,6.2776,6.2816,6.3072,6.2926,6.2927,6.2993,6.2979,6.3056,6.3062,6.3054,6.3249,6.3282,6.3399,6.3189,6.3745,6.3761,6.3775,6.392,6.3951,6.3978,0,0,0,0,0,6.2562,6.2748,6.2714,6.275,6.2927,6.3079,6.3102,6.3088,6.3003,6.3092,6.3117,6.3059,6.3366,6.3268,6.3305,6.3428,6.3738,6.3756,6.3774,6.3907,6.3945,6.3977,0,0,0,0,0,0,6.2696,6.2757,6.272,6.2933,6.3001,6.3061,6.3173,6.3129,6.3224,6.3208,6.3187,6.3205,6.3397,6.3431,6.3321,6.3656,6.3539,6.3565,6.3627,6.3664,6.3692,6.3679,6.3201,0,0,0,0,0,6.275,6.2868,6.2915,6.3098,6.3134,6.3148,6.3214,6.3197,6.3267,6.3296,6.3335,6.3407,6.3519,6.3593,6.3699,6.3925,6.3938,6.4027,6.4056,6.408,6.4102,6.4221,6.426,6.3843,6.3843,6.3843,0,0,6.2864,6.2911,6.2987,6.3126,6.3177,6.3299,6.3173,6.3309,6.3399,6.3317,6.3492,6.3523,6.3602,6.3806,6.3899,6.3841,6.4221,6.4103,6.4122,6.4131,6.4244,6.4283,6.4318,6.3856,6.3853,6.3852,0,0,6.3131,6.3181,6.3337,6.339,6.3468,6.3476,6.3513,6.3579,6.3596,6.3771,6.3711,6.3818,6.4013,6.407,6.4125,6.4412,6.4361,6.4447,6.4599,6.4715,6.4747,6.4776,6.4876,6.4912,6.447,6.4471,6.4471,0,6.3263,6.3443,6.3423,6.3562,6.3624,6.3554,6.3712,6.3765,6.3875,6.3919,6.3853,6.4092,6.4141,6.4356,6.4426,6.4474,6.4515,6.4438,6.4744,6.4773,6.48,6.4894,6.4932,6.448,6.4479,6.4478,6.4477,0,6.3599,6.3726,6.3843,6.3947,6.4023,6.4171,6.4173,6.4252,6.4228,6.4242,6.442,6.4475,6.4589,6.4639,6.4619,6.4852,6.4813,6.4746,6.4627,6.4849,6.4938,6.4974,6.4494,6.4491,6.4488,6.4485,0,0,6.3957,6.4046,6.409,6.4135,6.4215,6.4312,6.4457,6.4566,6.4633,6.4711,6.483,6.4995,6.4932,6.4995,6.4979,6.5081,6.5301,6.5001,6.5003,6.5053,6.5558,6.5606,6.5648,6.5269,6.5276,6.5281,6.555,0,6.4227,6.4476,6.4461,6.4696,6.4811,6.4745,6.487,6.4933,6.495,6.505,6.5069,6.5185,6.5095,6.5132,6.523,6.5254,6.5402,6.5235,6.5378,6.5383,6.5358,6.5695,6.5747,6.5998,6.5585,6.5591,6.5595,0,6.4576,6.4662,6.4908,6.4967,6.5015,6.5128,6.5225,6.5322,6.5392,6.5397,6.5465,6.5432,6.5576,6.5455,6.5653,6.5539,6.5597,6.5618,6.5627,6.5638,6.5501,6.5713,6.6079,6.6115,6.565,6.5646,6.5642,0,6.4808,6.4987,6.5155,6.5197,6.5272,6.5352,6.5387,6.5449,6.5514,6.56,6.5642,6.5745,6.5801,6.5881,6.5876,6.5789,6.6077,6.5955,6.6083,6.6084,6.6146,6.6141,6.6523,6.6188,6.6187,6.6186,6.6186,0,6.511,6.5262,6.526,6.5364,6.5531,6.5513,6.568,6.5706,6.5761,6.5868,6.5819,6.5921,6.591,6.6012,6.601,6.6172,6.6199,6.6206,6.6203,6.6209,6.6208,6.6245,6.6227,6.6196,6.6194,6.6192,6.619,0,6.5397,6.5403,6.5581,6.5637,6.5654,6.5775,6.5822,6.592,6.5932,6.6068,6.6099,6.6119,6.6236,6.624,6.6376,6.6374,6.6571,6.6551,6.6548,6.6543,6.6669,6.6656,6.7087,6.7141,6.6773,6.6776,6.6779,0,6.5589,6.5703,6.577,6.5837,6.5877,6.5987,6.6053,6.6039,6.611,6.6195,6.6283,6.6395,6.6484,6.6675,6.6702,6.6805,6.6784,6.6928,6.6799,6.68,6.6783,6.6775,6.6785,6.6952,6.6956,6.696,6.6962,0,6.5927,6.5922,6.6019,6.6117,6.6196,6.6273,6.6343,6.6402,6.6395,6.6477,6.6596,6.6665,6.6802,6.6914,6.7013,6.7049,6.7005,6.7003,6.7037,6.7043,6.7035,6.7038,6.6613,6.6993,6.699,6.6987,6.6986,6.6984,6.617,6.6267,6.6328,6.6437,6.6488,6.6554,6.6648,6.667,6.6769,6.6878,6.6864,6.6995,6.7059,6.7187,6.7232,6.7334,6.7284,6.7335,6.7348,6.736,6.7372,6.7021,6.7353,6.7352,6.7351,6.735,6.735,0,6.6502,6.6538,6.6638,6.6736,6.6822,6.6771,6.6846,6.692,6.7036,6.7099,6.7187,6.7321,6.7429,6.7463,6.7567,6.7642,6.7624,6.7669,6.7662,6.7671,6.7412,6.737,6.7682,6.7682,6.7682,6.7682,6.7682,6.7681,6.6685,6.6846,6.685,6.7035,6.707,6.7196,6.7243,6.7304,6.7353,6.7505,6.7593,6.7614,6.7665,6.7771,6.7867,6.7874,6.7914,6.7967,6.7966,6.7723,6.769,6.7658,6.7618,6.7977,6.7977,6.8215,6.8218,6.8219]},{"header":{"parameterUnit":"m.s-1","parameterCategory":1,"la1":30.2991,"la2":30.254,"lo1":-89.0895,"lo2":-89.0444,"dy":0.0017,"dx":0.0017,"nx":28,"ny":28,"refTime":"2024-06-26T09:00:00:Z","depth":0,"parameterNumber":3,"parameterNumberName":"V-component_of_WINDS"},"data":[0,0,0,0,0,0,0,0,0,0,0,0,0,0,0,0,0,0,0,0,0,0,0,0,0,0,0,0,0,0,0,0,0,0,0,0,0,0,0,0,0,0,0,0,0,0,0,0,0,0,0,0,0,0,0,0,0,0,2.0858,2.0859,0,2.093,2.0931,2.0931,2.0928,2.0927,2.0926,2.0925,2.0995,2.0998,2.1001,0,0,0,0,0,0,0,0,0,0,0,0,0,2.0714,2.0716,2.0858,2.0859,2.086,2.093,2.0931,2.0932,2.0928,2.0927,2.0925,2.0924,2.0994,2.0998,2.1001,0,0,0,0,0,0,0,0,0,0,0,0,0,2.078,2.0717,2.0858,2.0866,2.0868,2.093,2.0931,2.0932,2.0928,2.0927,2.0925,2.0924,2.0993,2.0997,2.1001,2.1058,0,0,2.1014,2.1016,0,0,0,0,0,0,0,0,2.0776,2.0785,2.0864,2.0866,2.0868,2.0918,2.0906,2.0974,2.0928,2.0905,2.0925,2.0923,2.0971,2.0977,2.0993,2.1062,2.1065,2.1015,2.1017,2.1019,2.102,0,0,0,0,0,0,0,2.0772,2.0782,2.0886,2.0865,2.0868,2.0865,2.0873,2.0919,2.0945,2.0907,2.0907,2.0916,2.0971,2.0989,2.0995,2.1066,2.1015,2.1018,2.1021,2.1023,2.1182,2.1184,0,0,0,0,0,0,2.0766,2.0778,2.0884,2.0889,2.0817,2.0869,2.0878,2.0904,2.0945,2.095,2.0917,2.0915,2.0983,2.099,2.0997,2.1066,2.1019,2.1023,2.1026,2.118,2.1182,2.1184,0,0,0,0,0,0,2.0763,2.0775,2.0881,2.0833,2.0847,2.0873,2.0902,2.0906,2.0924,2.0953,2.0957,2.0931,2.0982,2.0991,2.1043,2.1068,2.1025,2.1029,2.1178,2.1181,2.1183,2.1203,0,0,0,0,0,0,2.0758,2.0774,2.0797,2.0834,2.0849,2.0927,2.0904,2.0908,2.0932,2.093,2.0967,2.0971,2.0981,2.1037,2.1047,2.1073,2.1032,2.1176,2.1179,2.1182,2.12,2.1206,2.1211,0,0,0,0,0,2.0753,2.08,2.0798,2.0811,2.0879,2.0928,2.0937,2.0949,2.0934,2.0956,2.0974,2.097,2.1064,2.1042,2.1054,2.1081,2.1175,2.1179,2.1182,2.1198,2.1205,2.1211,0,0,0,0,0,0,2.0764,2.0805,2.0804,2.0864,2.0893,2.0928,2.0957,2.0956,2.0989,2.0986,2.0998,2.1007,2.1058,2.1075,2.105,2.1137,2.1117,2.1123,2.1125,2.1132,2.1137,2.1132,2.1036,0,0,0,0,0,2.0774,2.0812,2.0844,2.0894,2.0909,2.093,2.0952,2.0959,2.0989,2.1001,2.1023,2.1051,2.1087,2.111,2.1145,2.1203,2.121,2.1227,2.1232,2.1237,2.1242,2.1272,2.128,2.1197,2.1197,2.1196,0,0,2.0793,2.082,2.0843,2.0897,2.092,2.0958,2.0941,2.0982,2.1009,2.1007,2.1057,2.1074,2.1106,2.1161,2.1186,2.1176,2.1266,2.1241,2.1245,2.1248,2.1277,2.1284,2.1291,2.1199,2.1199,2.1198,0,0,2.0849,2.0873,2.0917,2.094,2.0976,2.099,2.1,2.1035,2.1046,2.1097,2.1095,2.1128,2.1189,2.1212,2.1232,2.1294,2.129,2.1304,2.1332,2.1361,2.1368,2.1374,2.1395,2.1402,2.131,2.131,2.131,0,2.0869,2.0927,2.0939,2.098,2.1003,2.1003,2.1046,2.1068,2.1112,2.1127,2.1116,2.1193,2.1215,2.1274,2.1289,2.1305,2.1316,2.1301,2.1366,2.1372,2.1378,2.1398,2.1406,2.1311,2.1311,2.1311,2.1311,0,2.0949,2.0989,2.1019,2.1063,2.1089,2.1131,2.1148,2.1173,2.1176,2.1191,2.1241,2.1267,2.1306,2.1321,2.1324,2.138,2.1372,2.1364,2.1343,2.1387,2.1406,2.1414,2.1313,2.1313,2.1312,2.1312,0,0,2.1014,2.1063,2.1074,2.1093,2.1132,2.1162,2.1203,2.1242,2.1262,2.1292,2.1326,2.1377,2.1369,2.1391,2.1397,2.1423,2.1469,2.1411,2.1412,2.142,2.153,2.1536,2.1545,2.1467,2.1468,2.147,2.1526,0,2.1072,2.1146,2.1158,2.1222,2.1258,2.1258,2.1293,2.132,2.1334,2.1365,2.138,2.1416,2.1403,2.1416,2.1441,2.1458,2.1491,2.1454,2.1497,2.1498,2.1488,2.1555,2.1562,2.1614,2.1534,2.1535,2.1536,0,2.1151,2.1184,2.1252,2.1284,2.13,2.1332,2.1367,2.1398,2.1427,2.1435,2.146,2.1462,2.1503,2.1481,2.1536,2.151,2.1528,2.1539,2.1541,2.1545,2.152,2.156,2.1631,2.1639,2.1548,2.1547,2.1547,0,2.119,2.1251,2.13,2.1316,2.1355,2.1377,2.1395,2.1423,2.1445,2.1475,2.1489,2.1524,2.1543,2.1569,2.158,2.1563,2.1634,2.1613,2.1641,2.164,2.1655,2.1654,2.173,2.1668,2.1668,2.1668,2.1668,0,2.1254,2.1295,2.1318,2.1347,2.1393,2.1405,2.1449,2.1466,2.149,2.1522,2.1523,2.1552,2.1566,2.1597,2.1605,2.1649,2.1657,2.1664,2.1666,2.1664,2.1663,2.1675,2.1672,2.167,2.1669,2.1669,2.1669,0,2.1305,2.1322,2.1375,2.1408,2.1417,2.1449,2.1476,2.1504,2.1517,2.1557,2.1567,2.1587,2.1624,2.1638,2.1682,2.1687,2.1737,2.1736,2.1728,2.1728,2.1754,2.1751,2.1841,2.1852,2.1783,2.1784,2.1784,0,2.1345,2.1377,2.1413,2.1435,2.1453,2.1488,2.151,2.1522,2.1546,2.1581,2.1604,2.164,2.167,2.1727,2.1745,2.1778,2.1778,2.1807,2.1783,2.1779,2.1777,2.1775,2.1777,2.1811,2.1812,2.1812,2.1813,0,2.1413,2.1419,2.1452,2.1488,2.1515,2.1544,2.1571,2.1589,2.1605,2.163,2.1668,2.1691,2.1736,2.1771,2.1805,2.1821,2.1819,2.182,2.1828,2.1826,2.1819,2.1822,2.1739,2.1818,2.1817,2.1817,2.1817,2.1817,2.1459,2.1487,2.1516,2.1553,2.1575,2.16,2.1628,2.1644,2.1676,2.1714,2.1719,2.1759,2.1785,2.1831,2.1848,2.1878,2.187,2.1882,2.1885,2.1887,2.1889,2.1815,2.1884,2.1884,2.1884,2.1884,2.1884,0,2.1526,2.1545,2.1578,2.1617,2.1645,2.1642,2.1672,2.1695,2.173,2.1756,2.1785,2.1827,2.1861,2.1881,2.1915,2.1935,2.1935,2.1943,2.1941,2.1945,2.1894,2.1884,2.1942,2.1942,2.1942,2.1942,2.1942,2.1942,2.1564,2.161,2.162,2.1677,2.1695,2.1735,2.1752,2.1774,2.1795,2.1842,2.1871,2.1884,2.1907,2.1942,2.1972,2.1977,2.1989,2.1998,2.2002,2.1954,2.1948,2.1943,2.1933,2.2,2.2,2.2049,2.205,2.205]}]]